This is the latest recevied weather packets stored in our database for station/object KC9MWQ-13. If no packets are shown the sender has not sent any weather packets the latest 10 day(s).
| Time | Temp. | Humidity | Pressure | Rain* | Wind** | Luminosity | Snow |
|---|---|---|---|---|---|---|---|
| 1777602872 | 11.67° C | 73% | 1015.4 hPa | 0 mm | - | 0 W/m² | - |
| 1777602566 | 12.22° C | 71% | 1015.5 hPa | 0 mm | - | 0 W/m² | - |
| 1777602263 | 11.67° C | 72% | 1015.4 hPa | 0 mm | - | 0 W/m² | - |
| 1777601958 | 11.67° C | 77% | 1015.4 hPa | 0 mm | - | 0 W/m² | - |
| 1777601654 | 11.67° C | 75% | 1015.4 hPa | 0 mm | - | 0 W/m² | - |
| 1777601349 | 11.67° C | 74% | 1015.2 hPa | 0 mm | - | 0 W/m² | - |
| 1777601045 | 11.67° C | 74% | 1015.1 hPa | 0 mm | - | 0 W/m² | - |
| 1777600743 | 11.67° C | 74% | 1015.3 hPa | 0 mm | - | 0 W/m² | - |
| 1777600439 | 11.67° C | 75% | 1015.4 hPa | 0 mm | - | 0 W/m² | - |
| 1777600134 | 11.11° C | 75% | 1015 hPa | 0 mm | - | 0 W/m² | - |
| 1777599830 | 11.11° C | 81% | 1015.5 hPa | 0 mm | - | 0 W/m² | - |
| 1777599526 | 11.11° C | 79% | 1015.1 hPa | 0 mm | - | 0 W/m² | - |
| 1777599223 | 11.67° C | 80% | 1015.2 hPa | 0 mm | - | 0 W/m² | - |
| 1777598919 | 11.67° C | 81% | 1015.2 hPa | 0 mm | - | 0 W/m² | - |
| 1777598617 | 11.11° C | 76% | 1015.2 hPa | 0 mm | - | 0 W/m² | - |
| 1777598312 | 11.67° C | 73% | 1014.9 hPa | 0 mm | - | 0 W/m² | - |
| 1777598010 | 11.67° C | 72% | 1015.2 hPa | 0 mm | - | 0 W/m² | - |
| 1777597709 | 11.67° C | 72% | 1014.9 hPa | 0 mm | - | 0 W/m² | - |
| 1777597405 | 11.11° C | 75% | 1014.7 hPa | 0 mm | - | 0 W/m² | - |
| 1777597101 | 11.11° C | 73% | 1014.7 hPa | 0 mm | - | 0 W/m² | - |
| 1777596797 | 11.67° C | 72% | 1014.7 hPa | 0 mm | - | 0 W/m² | - |
| 1777596493 | 11.67° C | 72% | 1014.9 hPa | 0 mm | - | 0 W/m² | - |
| 1777596191 | 11.67° C | 72% | 1015.1 hPa | 0 mm | - | 0 W/m² | - |
| 1777595888 | 11.67° C | 69% | 1015 hPa | 0 mm | - | 0 W/m² | - |
| 1777595588 | 11.67° C | 68% | 1014.7 hPa | 0 mm | - | 1 W/m² | - |
* Rain latest hour (hover to see other rain measurements)
** Current wind speed in m/s (hover to see current wind gust speed)